Location: Unspecified
(0.0000°N, 0.0000°E)
Time: 13:24:03
(UTC+00:00)

LightSail 2 - Pass Details

Date: 13 September 2019
Orbit: 699 x 732 km, 24.0° (Epoch: 17 September)

Event Time Altitude Azimuth Distance (km) Brightness Sun altitude
Exits shadow 05:13:19 14° 258° (WSW) 1,907 6.7 -10.7°
Maximum altitude 05:17:37 56° 335° (NNW) 829 5.4 -9.6°
Drops below altitude 10° 05:22:37 10° 53° (NE) 2,166 8.6 -8.4°
Sets 05:25:06 0° 57° (ENE) 3,089 9.6 -7.7°
